When you browse on this site, cookies collect data to enhance your experience and personalize the content and advertising you see.
Visit our Privacy Policy to learn more. By continuing to use the site, you agree to this use of cookies and data.
  • In Germany
  • List of Countries
  • For 7 days
  • Water Temperature
  • Weather Map
  • Weather Widgets
  • user-avatar
    Login

    Hourly Weather Blagoevgrad

    Today, 21 November, Thursday

    Time Temperature Precipitation Wind Pressure Humidity
    00:00 +11°C° 0 mm 1 mps 720 mmHg 91%
    01:00 +10°C° 0 mm 1 mps 720 mmHg 91%
    02:00 +10°C° 0 mm 1 mps 720 mmHg 91%
    03:00 +10°C° 0 mm 1 mps 720 mmHg 91%
    04:00 +10°C° 0 mm 1 mps 720 mmHg 90%
    05:00 +10°C° 0 mm 1 mps 720 mmHg 90%
    06:00 +10°C° 0 mm 1 mps 720 mmHg 90%
    07:00 +10°C° 0 mm 1 mps 720 mmHg 90%
    08:00 +11°C° 0 mm 1 mps 720 mmHg 89%
    09:00 +12°C° 0 mm 1 mps 720 mmHg 86%
    10:00 +13°C° 0 mm 1 mps 720 mmHg 82%
    11:00 +14°C° 0 mm 1 mps 720 mmHg 79%
    12:00 +15°C° 0.1 mm 1 mps 720 mmHg 79%
    13:00 +15°C° 0.1 mm 1 mps 719 mmHg 78%
    14:00 +16°C° 0.1 mm 1 mps 719 mmHg 78%
    15:00 +15°C° 0.2 mm 1 mps 719 mmHg 82%
    16:00 +14°C° 0.2 mm 1 mps 719 mmHg 86%
    17:00 +13°C° 0.2 mm 1 mps 718 mmHg 90%
    18:00 +13°C° 0.1 mm 1 mps 719 mmHg 90%
    19:00 +12°C° 0.1 mm 1 mps 719 mmHg 91%
    20:00 +12°C° 0.1 mm 1 mps 719 mmHg 92%
    21:00 +12°C° 0.3 mm 1 mps 719 mmHg 92%
    22:00 +12°C° 0.3 mm 1 mps 719 mmHg 93%
    23:00 +12°C° 0.3 mm 1 mps 719 mmHg 93%

    Tomorrow, 22 November, Friday

    Time Temperature Precipitation Wind Pressure Humidity
    00:00 +12°C° 1.3 mm 1 mps 719 mmHg 94%
    01:00 +12°C° 1.3 mm 1 mps 719 mmHg 94%
    02:00 +12°C° 1.3 mm 1 mps 718 mmHg 95%
    03:00 +12°C° 1.7 mm 1 mps 718 mmHg 95%
    04:00 +12°C° 1.7 mm 1 mps 718 mmHg 95%
    05:00 +12°C° 1.7 mm 1 mps 718 mmHg 95%
    06:00 +12°C° 1.3 mm 1 mps 719 mmHg 95%
    07:00 +11°C° 1.3 mm 1 mps 719 mmHg 95%
    08:00 +11°C° 1.3 mm 1 mps 719 mmHg 95%
    09:00 +11°C° 1 mm 1 mps 720 mmHg 94%
    10:00 +12°C° 1 mm 1 mps 720 mmHg 93%
    11:00 +12°C° 1 mm 1 mps 720 mmHg 92%
    12:00 +12°C° 0.3 mm 1 mps 720 mmHg 90%
    13:00 +12°C° 0.3 mm 1 mps 720 mmHg 89%
    14:00 +12°C° 0.3 mm 1 mps 720 mmHg 87%
    15:00 +11°C° 0.1 mm 1 mps 720 mmHg 89%
    16:00 +11°C° 0.1 mm 1 mps 721 mmHg 90%
    17:00 +11°C° 0.1 mm 1 mps 721 mmHg 91%
    18:00 +10°C° 0.2 mm 1 mps 721 mmHg 91%
    19:00 +10°C° 0.2 mm 1 mps 721 mmHg 92%
    20:00 +10°C° 0.2 mm 1 mps 722 mmHg 92%
    21:00 +10°C° 0.1 mm 1 mps 722 mmHg 93%
    22:00 +10°C° 0.1 mm 1 mps 722 mmHg 93%
    23:00 +10°C° 0.1 mm 1 mps 722 mmHg 93%

    Day after tomorrow, 23 November, Saturday

    Time Temperature Precipitation Wind Pressure Humidity
    00:00 +10°C° 0.1 mm 1 mps 722 mmHg 93%
    01:00 +8°C° 0.1 mm 0 mps 722 mmHg 93%
    02:00 +8°C° 0.1 mm 0 mps 722 mmHg 93%
    03:00 +8°C° 0 mm 0 mps 722 mmHg 93%
    04:00 +8°C° 0 mm 0 mps 722 mmHg 92%
    05:00 +8°C° 0 mm 0 mps 722 mmHg 92%
    06:00 +9°C° 0 mm 1 mps 722 mmHg 92%
    07:00 +9°C° 0 mm 1 mps 722 mmHg 92%
    08:00 +9°C° 0 mm 1 mps 722 mmHg 92%
    09:00 +10°C° 0 mm 1 mps 723 mmHg 89%
    10:00 +11°C° 0 mm 1 mps 723 mmHg 86%
    11:00 +12°C° 0 mm 1 mps 723 mmHg 83%
    12:00 +12°C° 0 mm 1 mps 723 mmHg 81%
    13:00 +13°C° 0 mm 1 mps 722 mmHg 79%
    14:00 +13°C° 0 mm 1 mps 722 mmHg 77%
    15:00 +12°C° 0 mm 1 mps 722 mmHg 81%
    16:00 +12°C° 0 mm 1 mps 722 mmHg 84%
    17:00 +11°C° 0 mm 1 mps 721 mmHg 88%
    18:00 +10°C° 0 mm 1 mps 722 mmHg 90%
    19:00 +10°C° 0 mm 1 mps 722 mmHg 91%
    20:00 +9°C° 0 mm 1 mps 722 mmHg 92%
    21:00 +9°C° 0 mm 1 mps 722 mmHg 93%
    22:00 +9°C° 0 mm 1 mps 722 mmHg 93%
    23:00 +8°C° 0 mm 1 mps 722 mmHg 93%

    24 November, Sunday

    Time Temperature Precipitation Wind Pressure Humidity
    00:00 +8°C° 0 mm 1 mps 722 mmHg 93%
    01:00 +8°C° 0 mm 1 mps 722 mmHg 93%
    02:00 +8°C° 0 mm 1 mps 722 mmHg 92%
    03:00 +8°C° 0 mm 1 mps 722 mmHg 92%
    04:00 +8°C° 0 mm 1 mps 722 mmHg 92%
    05:00 +8°C° 0 mm 1 mps 721 mmHg 92%
    06:00 +8°C° 0 mm 1 mps 721 mmHg 91%
    07:00 +8°C° 0 mm 1 mps 721 mmHg 91%
    08:00 +7°C° 0 mm 1 mps 721 mmHg 90%
    09:00 +9°C° 0 mm 1 mps 722 mmHg 85%
    10:00 +11°C° 0 mm 1 mps 722 mmHg 80%
    11:00 +12°C° 0 mm 1 mps 722 mmHg 75%
    12:00 +13°C° 0 mm 1 mps 721 mmHg 73%
    13:00 +13°C° 0 mm 1 mps 721 mmHg 72%
    14:00 +14°C° 0 mm 2 mps 721 mmHg 70%
    15:00 +13°C° 0 mm 1 mps 720 mmHg 75%
    16:00 +12°C° 0 mm 1 mps 720 mmHg 80%
    17:00 +11°C° 0 mm 1 mps 720 mmHg 85%
    18:00 +10°C° 0 mm 1 mps 720 mmHg 86%
    19:00 +9°C° 0 mm 1 mps 720 mmHg 87%
    20:00 +9°C° 0 mm 1 mps 720 mmHg 89%
    21:00 +8°C° 0 mm 1 mps 720 mmHg 88%
    22:00 +8°C° 0 mm 1 mps 720 mmHg 88%
    23:00 +8°C° 0 mm 1 mps 720 mmHg 87%

    25 November, Monday

    Time Temperature Precipitation Wind Pressure Humidity
    00:00 +8°C° 0 mm 1 mps 720 mmHg 87%
    01:00 +7°C° 0 mm 1 mps 720 mmHg 87%
    02:00 +7°C° 0 mm 1 mps 720 mmHg 87%
    03:00 +7°C° 0 mm 1 mps 719 mmHg 87%
    04:00 +7°C° 0 mm 1 mps 719 mmHg 87%
    05:00 +7°C° 0 mm 1 mps 719 mmHg 87%
    06:00 +7°C° 0 mm 1 mps 719 mmHg 87%
    07:00 +7°C° 0 mm 1 mps 719 mmHg 88%
    08:00 +7°C° 0 mm 1 mps 719 mmHg 88%
    09:00 +9°C° 0 mm 1 mps 719 mmHg 83%
    10:00 +10°C° 0 mm 1 mps 719 mmHg 78%
    11:00 +12°C° 0 mm 1 mps 719 mmHg 73%
    12:00 +12°C° 0 mm 2 mps 719 mmHg 72%
    13:00 +13°C° 0 mm 2 mps 718 mmHg 70%
    14:00 +14°C° 0 mm 2 mps 718 mmHg 68%
    15:00 +12°C° 0 mm 2 mps 718 mmHg 74%
    16:00 +11°C° 0 mm 1 mps 718 mmHg 80%
    17:00 +10°C° 0 mm 1 mps 718 mmHg 87%
    18:00 +9°C° 0 mm 1 mps 718 mmHg 87%
    19:00 +9°C° 0 mm 1 mps 718 mmHg 87%
    20:00 +8°C° 0 mm 1 mps 718 mmHg 86%
    21:00 +8°C° 0 mm 1 mps 718 mmHg 86%
    22:00 +8°C° 0 mm 1 mps 718 mmHg 86%
    23:00 +7°C° 0 mm 1 mps 718 mmHg 86%

    26 November, Tuesday

    Time Temperature Precipitation Wind Pressure Humidity
    00:00 +7°C° 0 mm 1 mps 718 mmHg 86%
    01:00 +7°C° 0 mm 1 mps 718 mmHg 86%
    02:00 +7°C° 0 mm 1 mps 718 mmHg 86%
    03:00 +7°C° 0 mm 1 mps 718 mmHg 85%
    04:00 +7°C° 0 mm 1 mps 718 mmHg 84%
    05:00 +7°C° 0 mm 1 mps 718 mmHg 84%
    06:00 +7°C° 0 mm 1 mps 718 mmHg 83%
    07:00 +6°C° 0 mm 0 mps 718 mmHg 83%
    08:00 +6°C° 0 mm 0 mps 718 mmHg 83%
    09:00 +7°C° 0 mm 0 mps 719 mmHg 77%
    10:00 +9°C° 0 mm 0 mps 719 mmHg 71%
    11:00 +11°C° 0 mm 0 mps 719 mmHg 66%
    12:00 +13°C° 0 mm 1 mps 719 mmHg 64%
    13:00 +14°C° 0 mm 1 mps 718 mmHg 62%
    14:00 +14°C° 0 mm 1 mps 718 mmHg 60%
    15:00 +13°C° 0 mm 1 mps 718 mmHg 66%
    16:00 +11°C° 0 mm 0 mps 718 mmHg 72%
    17:00 +9°C° 0 mm 0 mps 718 mmHg 78%
    18:00 +9°C° 0 mm 0 mps 719 mmHg 79%
    19:00 +8°C° 0 mm 0 mps 719 mmHg 80%
    20:00 +8°C° 0 mm 0 mps 719 mmHg 80%
    21:00 +8°C° 0 mm 0 mps 720 mmHg 81%
    22:00 +7°C° 0 mm 0 mps 720 mmHg 82%
    23:00 +7°C° 0 mm 0 mps 720 mmHg 82%
    Show more